Content
SEND FEEDBACK

Daily
Averages
Monthly
Summary
United States of America

ST. LOUIS - SAINT LOUIS UNIVERSITY, MISSOURI


Home > North America > United States > Missouri
Elevation: 177 meters     Latitude: 38 38N     Longitude: 090 14W

WEATHER
 
SELECT A DAY
Number of Records: 189,064;   Date Range: 1/1/95 - 10/20/14
 
SHARE

PRINT THIS DATA

[ ← Previous Day ]
WEATHER ALMANAC - 22 MARCH, 2013
[ Next Day → ]
[ °F ]   °C
Weather ElementAverageHighLow
Temperature2.6 °C5.6 °C (1:53 pm)0 °C (1:53 am)
Dewpoint-5.3 °C-3.9 °C (6:53 pm)-6.7 °C (2:53 am)
Humidity56.7 %64 % (1:53 am)47 % (1:53 pm)
Barometer1017.3 hPa1018.3 hPa (8:53 am)1015.9 hPa (6:53 pm)
Wind Speed9.7 km/h14.8 km/h (1:53 pm)
Weather ElementAverage
Visibility16.1 km
Wind DirectionESE (98.6 °)

Weather ElementTotal
Precipitation---
Heating Degree Days15.6 (Base 18.3)
Averaged from 22 records on 22 March, 2013
WEATHER CONDITIONS BREAKOUT
WIND DIRECTION BREAKOUT
WEATHER BY HOUR - 22 MARCH, 2013
[ °F ]   °C
Local TimeTemperatureDewpointHumidityBarometerVisibilityWind DirectionWind SpeedGust SpeedPrecipitationEventsConditions
1:53 AM0 °C-6.1 °C64 %1017.3 hPa16.1 kmESE (120°)13 km/hOvercast
2:53 AM0 °C-6.7 °C61 %1017.3 hPa16.1 kmSE (140°)9.3 km/hOvercast
3:53 AM0 °C-6.1 °C64 %1016.9 hPa16.1 kmSE (130°)5.6 km/hOvercast
4:53 AM0 °C-6.1 °C64 %1016.9 hPa16.1 kmESE (110°)7.4 km/hOvercast
5:53 AM0 °C-6.7 °C61 %1017.3 hPa16.1 kmESE (110°)7.4 km/hOvercast
6:53 AM0 °C-6.1 °C64 %1017.3 hPa16.1 kmEast (80°)7.4 km/hOvercast
7:53 AM0 °C-6.1 °C64 %1017.9 hPa16.1 kmEast (90°)7.4 km/hOvercast
8:53 AM0.6 °C-5.6 °C64 %1018.3 hPa16.1 kmEast (100°)9.3 km/hOvercast
9:53 AM1.1 °C-5.6 °C61 %1018.3 hPa16.1 kmESE (120°)7.4 km/hOvercast
10:53 AM1.7 °C-5.6 °C59 %1017.9 hPa16.1 kmEast (100°)7.4 km/hOvercast
11:53 AM3.3 °C-5 °C55 %1017.9 hPa16.1 kmSE (130°)11.1 km/hOvercast
12:53 PM5 °C-4.4 °C51 %1017.3 hPa16.1 kmSSE (150°)11.1 km/hOvercast
1:53 PM5.6 °C-5 °C47 %1016.6 hPa16.1 kmESE (120°)14.8 km/hOvercast
2:53 PM5.6 °C-5 °C47 %1016.3 hPa16.1 kmSE (130°)14.8 km/hOvercast
3:53 PM5 °C-5 °C49 %1016.3 hPa16.1 kmESE (120°)9.3 km/hOvercast
4:53 PM5 °C-5 °C49 %1016.3 hPa16.1 kmCalmOvercast
6:53 PM5 °C-3.9 °C53 %1015.9 hPa16.1 kmENE (70°)13 km/hOvercast
7:53 PM4.4 °C-4.4 °C53 %1016.6 hPa16.1 kmEast (80°)11.1 km/hOvercast
8:53 PM4.4 °C-4.4 °C53 %1016.9 hPa16.1 kmENE (60°)14.8 km/hOvercast
9:53 PM3.9 °C-4.4 °C55 %1017.3 hPa16.1 kmEast (80°)11.1 km/hOvercast
10:53 PM3.9 °C-5 °C53 %1017.6 hPa16.1 kmENE (70°)9.3 km/hOvercast
11:53 PM3.3 °C-4.4 °C57 %1017.3 hPa16.1 kmENE (60°)9.3 km/hOvercast
Hourly data recorded from KCPS, located 0 kilometers away from St. Louis - Saint Louis University, Missouri







STORIES FROM OUR PARTNERS